DAL88 KDFW-KDEN

Flight info

Callsign DAL88
Flight time N/A
Altitude 32000
Route HUDAD2 HUDAD EZEEE ZIGEE NIIXX4
Aircraft B739/M-SDE2E3FGHIRWXY/LB1

Departure

Time 2026-05-05 22:32
Airport Dallas Fort Worth International Airport (KDFW)

Arrival

Time N/A
Airport Denver International Airport (KDEN)
Time Latitude Longitude Altitude Speed Heading
2026-05-05 22:02 32.90505 -97.03500 624 ft 0 kts 267°
2026-05-05 22:18 32.90506 -97.03475 618 ft 3 kts 269°
2026-05-05 22:18 32.90504 -97.03447 627 ft 3 kts 281°
2026-05-05 22:18 32.90497 -97.03422 626 ft 3 kts 302°
2026-05-05 22:19 32.90483 -97.03403 629 ft 3 kts 337°
2026-05-05 22:19 32.90467 -97.03399 619 ft 1 kts
2026-05-05 22:19 32.90464 -97.03399 625 ft 0 kts
2026-05-05 22:25 32.90469 -97.03398 620 ft 3 kts
2026-05-05 22:26 32.90487 -97.03366 626 ft 6 kts 92°
2026-05-05 22:26 32.90473 -97.03322 624 ft 6 kts 96°
2026-05-05 22:26 32.90470 -97.03274 615 ft 6 kts 90°
2026-05-05 22:26 32.90470 -97.03227 615 ft 6 kts 90°
2026-05-05 22:27 32.90490 -97.03188 619 ft 6 kts 31°
2026-05-05 22:27 32.90529 -97.03187 618 ft 6 kts 358°
2026-05-05 22:27 32.90568 -97.03188 622 ft 6 kts 359°
2026-05-05 22:27 32.90608 -97.03189 620 ft 6 kts 359°
2026-05-05 22:28 32.90685 -97.03188 615 ft 17 kts
2026-05-05 22:28 32.90808 -97.03189 623 ft 18 kts
2026-05-05 22:28 32.90928 -97.03187 617 ft 17 kts
2026-05-05 22:28 32.91043 -97.03186 619 ft 16 kts 360°
2026-05-05 22:29 32.91155 -97.03187 620 ft 16 kts 360°
2026-05-05 22:29 32.91261 -97.03187 615 ft 15 kts
2026-05-05 22:29 32.91363 -97.03185 626 ft 14 kts
2026-05-05 22:29 32.91462 -97.03183 619 ft 14 kts
2026-05-05 22:30 32.91543 -97.03173 620 ft 12 kts 36°
2026-05-05 22:30 32.91564 -97.03104 615 ft 0 kts 91°
2026-05-05 22:31 32.91563 -97.03043 615 ft 11 kts 94°
2026-05-05 22:31 32.91514 -97.02990 625 ft 11 kts 181°
2026-05-05 22:31 32.91262 -97.02994 620 ft 76 kts 180°
2026-05-05 22:31 32.90469 -97.02995 621 ft 148 kts 181°
2026-05-05 22:32 32.89260 -97.02973 776 ft 189 kts 184°
2026-05-05 22:32 32.87937 -97.02890 1531 ft 197 kts 178°
2026-05-05 22:32 32.86582 -97.02911 2390 ft 193 kts 193°
2026-05-05 22:32 32.85350 -97.03528 3130 ft 199 kts 207°
2026-05-05 22:33 32.84034 -97.04314 3338 ft 224 kts 207°
2026-05-05 22:33 32.82578 -97.05169 3782 ft 239 kts 207°
2026-05-05 22:33 32.81068 -97.06047 4502 ft 243 kts 208°
2026-05-05 22:33 32.79552 -97.06928 5322 ft 245 kts 209°
2026-05-05 22:34 32.78153 -97.08100 5869 ft 250 kts 231°
2026-05-05 22:34 32.77272 -97.09854 6574 ft 248 kts 251°
2026-05-05 22:34 32.76833 -97.11850 7241 ft 251 kts 258°
2026-05-05 22:34 32.76530 -97.13894 7983 ft 252 kts 265°
2026-05-05 22:35 32.76589 -97.15979 8476 ft 263 kts 274°
2026-05-05 22:35 32.76759 -97.18169 9094 ft 269 kts 274°
2026-05-05 22:35 32.76914 -97.20383 9838 ft 270 kts 273°
2026-05-05 22:35 32.77062 -97.22657 10192 ft 286 kts 274°
2026-05-05 22:36 32.77529 -97.25041 10332 ft 310 kts 292°
2026-05-05 22:36 32.78536 -97.27408 10492 ft 330 kts 295°
2026-05-05 22:36 32.79650 -97.29880 10627 ft 348 kts 295°
2026-05-05 22:36 32.80785 -97.32376 10940 ft 356 kts 295°
2026-05-05 22:37 32.81982 -97.35014 11500 ft 358 kts 295°
2026-05-05 22:37 32.83158 -97.37619 12117 ft 358 kts 295°
2026-05-05 22:37 32.84334 -97.40240 12700 ft 360 kts 295°
2026-05-05 22:37 32.85512 -97.42878 13281 ft 362 kts 295°
2026-05-05 22:38 32.86693 -97.45532 13826 ft 364 kts 295°
2026-05-05 22:38 32.87875 -97.48193 14338 ft 365 kts 295°
2026-05-05 22:38 32.89063 -97.50868 14815 ft 366 kts 295°
2026-05-05 22:38 32.90253 -97.53554 15465 ft 368 kts 294°
2026-05-05 22:39 32.91451 -97.56260 15942 ft 370 kts 295°
2026-05-05 22:39 32.92654 -97.58979 16427 ft 372 kts 295°
2026-05-05 22:39 32.93862 -97.61710 16926 ft 373 kts 294°
2026-05-05 22:39 32.95073 -97.64449 17400 ft 374 kts 294°
2026-05-05 22:40 32.96288 -97.67199 17845 ft 376 kts 295°
2026-05-05 22:40 32.97510 -97.69969 18252 ft 378 kts 295°
2026-05-05 22:40 32.98735 -97.72747 18647 ft 379 kts 295°
2026-05-05 22:40 32.99901 -97.75552 19076 ft 377 kts 292°
2026-05-05 22:41 33.00981 -97.78394 19491 ft 376 kts 291°
2026-05-05 22:41 33.02032 -97.81251 19907 ft 375 kts 291°
2026-05-05 22:41 33.03076 -97.84098 20169 ft 375 kts 291°
2026-05-05 22:41 33.04125 -97.86949 20532 ft 376 kts 291°
2026-05-05 22:42 33.05182 -97.89802 20881 ft 377 kts 291°
2026-05-05 22:42 33.06244 -97.92657 21256 ft 377 kts 291°
2026-05-05 22:42 33.07308 -97.95510 21644 ft 376 kts 291°
2026-05-05 22:42 33.08371 -97.98358 22018 ft 376 kts 291°
2026-05-05 22:43 33.09434 -98.01208 22331 ft 377 kts 291°
2026-05-05 22:43 33.10499 -98.04065 22629 ft 377 kts 292°
2026-05-05 22:43 33.11566 -98.06929 22928 ft 378 kts 292°
2026-05-05 22:43 33.12634 -98.09798 23244 ft 378 kts 292°
2026-05-05 22:44 33.13699 -98.12661 23496 ft 378 kts 292°
2026-05-05 22:44 33.14753 -98.15498 23675 ft 379 kts 292°
2026-05-05 22:44 33.15825 -98.18386 23877 ft 381 kts 291°
2026-05-05 22:44 33.16900 -98.21284 24087 ft 382 kts 291°
2026-05-05 22:45 33.17975 -98.24182 24286 ft 383 kts 291°
2026-05-05 22:45 33.19055 -98.27093 24487 ft 384 kts 291°
2026-05-05 22:45 33.20138 -98.30010 24685 ft 385 kts 291°
2026-05-05 22:45 33.21222 -98.32936 24874 ft 386 kts 291°
2026-05-05 22:46 33.22309 -98.35869 25083 ft 386 kts 291°
2026-05-05 22:46 33.23396 -98.38806 25261 ft 387 kts 291°
2026-05-05 22:46 33.24487 -98.41756 25450 ft 388 kts 291°
2026-05-05 22:46 33.25577 -98.44707 25617 ft 389 kts 291°
2026-05-05 22:47 33.26671 -98.47670 25802 ft 390 kts 291°
2026-05-05 22:47 33.27764 -98.50636 25972 ft 391 kts 291°
2026-05-05 22:47 33.28862 -98.53615 26138 ft 392 kts 291°
2026-05-05 22:47 33.29962 -98.56605 26281 ft 393 kts 291°
2026-05-05 22:48 33.31061 -98.59594 26512 ft 392 kts 291°
2026-05-05 22:48 33.32155 -98.62571 26815 ft 390 kts 291°
2026-05-05 22:48 33.33243 -98.65534 27106 ft 389 kts 291°
2026-05-05 22:48 33.34328 -98.68491 27367 ft 388 kts 291°
2026-05-05 22:49 33.35408 -98.71439 27643 ft 387 kts 291°
2026-05-05 22:49 33.36485 -98.74382 27955 ft 385 kts 291°
2026-05-05 22:49 33.37546 -98.77281 28273 ft 384 kts 291°
2026-05-05 22:49 33.38613 -98.80200 28595 ft 382 kts 291°
2026-05-05 22:50 33.39675 -98.83111 28908 ft 381 kts 291°
2026-05-05 22:50 33.40735 -98.86017 29253 ft 380 kts 291°
2026-05-05 22:50 33.41790 -98.88911 29597 ft 379 kts 291°
2026-05-05 22:50 33.42840 -98.91797 29946 ft 377 kts 291°
2026-05-05 22:51 33.43883 -98.94662 30272 ft 375 kts 291°
2026-05-05 22:51 33.44920 -98.97513 30621 ft 372 kts 291°
2026-05-05 22:51 33.45948 -99.00344 30958 ft 370 kts 291°
2026-05-05 22:51 33.46626 -99.02214 31135 ft 370 kts 291°
2026-05-05 22:52 33.47650 -99.05038 31409 ft 370 kts 291°
2026-05-05 22:52 33.48672 -99.07859 31687 ft 369 kts 291°
2026-05-05 22:52 33.49691 -99.10676 31729 ft 370 kts 291°
2026-05-05 22:53 33.51738 -99.16336 31748 ft 368 kts 291°
2026-05-05 22:53 33.53763 -99.21947 31756 ft 366 kts 291°
2026-05-05 22:54 33.55776 -99.27536 31755 ft 364 kts 291°
2026-05-05 22:54 33.57782 -99.33112 31757 ft 364 kts 291°
2026-05-05 22:55 33.59781 -99.38680 31758 ft 364 kts 291°
2026-05-05 22:55 33.62457 -99.43848 31762 ft 373 kts 307°
2026-05-05 22:56 33.66580 -99.47804 31771 ft 383 kts 316°
2026-05-05 22:56 33.70941 -99.51499 31776 ft 384 kts 316°
2026-05-05 22:57 33.75298 -99.55205 31775 ft 383 kts 316°
2026-05-05 22:57 33.79606 -99.58904 31780 ft 382 kts 316°
2026-05-05 22:58 33.83927 -99.62636 31786 ft 382 kts 316°
2026-05-05 22:58 33.88236 -99.66368 31784 ft 381 kts 316°
2026-05-05 22:59 33.92528 -99.70090 31795 ft 380 kts 316°
2026-05-05 22:59 33.96807 -99.73807 31798 ft 379 kts 316°
2026-05-05 23:00 34.03209 -99.79377 31802 ft 378 kts 316°
2026-05-05 23:00 34.07460 -99.83081 31805 ft 377 kts 316°
2026-05-05 23:01 34.11705 -99.86783 31809 ft 377 kts 316°
2026-05-05 23:01 34.15959 -99.90502 31817 ft 378 kts 316°
2026-05-05 23:02 34.20200 -99.94213 31821 ft 379 kts 316°
2026-05-05 23:02 34.24479 -99.97960 31847 ft 382 kts 316°
2026-05-05 23:03 34.28822 -100.01773 32121 ft 388 kts 316°
2026-05-05 23:03 34.31000 -100.03683 32481 ft 385 kts 315°
2026-05-05 23:03 34.33155 -100.05570 32932 ft 380 kts 315°
2026-05-05 23:04 34.35292 -100.07443 33329 ft 377 kts 315°
2026-05-05 23:04 34.37410 -100.09306 33648 ft 376 kts 315°
2026-05-05 23:04 34.39521 -100.11164 33962 ft 374 kts 315°
2026-05-05 23:04 34.41618 -100.13010 34232 ft 372 kts 314°
2026-05-05 23:05 34.43714 -100.14857 34451 ft 372 kts 314°
2026-05-05 23:05 34.45809 -100.16706 34622 ft 373 kts 314°
2026-05-05 23:05 34.47902 -100.18554 34852 ft 372 kts 314°
2026-05-05 23:05 34.49994 -100.20401 35068 ft 372 kts 314°
2026-05-05 23:06 34.52083 -100.22247 35220 ft 372 kts 314°
2026-05-05 23:06 34.54181 -100.24103 35381 ft 373 kts 314°
2026-05-05 23:06 34.56276 -100.25956 35592 ft 372 kts 314°
2026-05-05 23:06 34.58365 -100.27804 35815 ft 370 kts 314°
2026-05-05 23:07 34.62538 -100.31502 35871 ft 373 kts 314°
2026-05-05 23:07 34.66723 -100.35214 35857 ft 370 kts 314°
2026-05-05 23:08 34.70839 -100.38865 35854 ft 367 kts 313°
2026-05-05 23:08 34.74952 -100.42522 35849 ft 365 kts 313°
2026-05-05 23:09 34.79047 -100.46170 35852 ft 365 kts 313°
2026-05-05 23:09 34.83156 -100.49838 35875 ft 369 kts 313°
2026-05-05 23:10 34.87315 -100.53557 36053 ft 373 kts 313°
2026-05-05 23:10 34.89403 -100.55420 36309 ft 371 kts 313°
2026-05-05 23:10 34.91478 -100.57271 36563 ft 369 kts 313°
2026-05-05 23:11 34.93549 -100.59122 36691 ft 370 kts 313°
2026-05-05 23:11 34.95627 -100.60984 36803 ft 370 kts 313°
2026-05-05 23:11 34.97702 -100.62843 36957 ft 371 kts 313°
2026-05-05 23:11 34.99782 -100.64707 37136 ft 370 kts 313°
2026-05-05 23:12 35.01856 -100.66566 37273 ft 370 kts 312°
2026-05-05 23:12 35.03933 -100.68431 37367 ft 371 kts 312°
2026-05-05 23:12 35.06009 -100.70296 37537 ft 370 kts 312°
2026-05-05 23:12 35.08074 -100.72149 37780 ft 366 kts 312°
2026-05-05 23:13 35.12066 -100.75967 37438 ft 368 kts 307°
2026-05-05 23:13 35.13878 -100.78214 36770 ft 375 kts 302°
2026-05-05 23:13 35.15429 -100.80783 36250 ft 376 kts 295°
2026-05-05 23:14 35.16574 -100.83583 36098 ft 370 kts 286°
2026-05-05 23:14 35.17239 -100.86568 36265 ft 360 kts 277°
2026-05-05 23:14 35.17346 -100.89583 36506 ft 353 kts 267°
2026-05-05 23:14 35.16876 -100.92533 36583 ft 357 kts 256°
2026-05-05 23:15 35.15829 -100.95329 36402 ft 370 kts 246°
2026-05-05 23:15 35.14204 -100.97873 36058 ft 391 kts 235°
2026-05-05 23:15 35.12023 -101.00026 35741 ft 415 kts 223°
2026-05-05 23:15 35.09584 -101.01501 35589 ft 436 kts 212°